Regional Weather Roundup
Issued by NWS

Home | Current Version | Previous Version | Text Only | Print | Product List | Glossary On
Versions: 1 2 3 4 5 6 7 8 9 10 11 12 13 14 15 16 17 18 19 20 21 22 23 24 25 26 27 28 29 30 31 32 33 34 35 36 37 38 39 40 41 42 43 44 45 46 47 48 49 50
000
ASUS43 KLMK 061502
RWRKY
KENTUCKY REGIONAL WEATHER ROUNDUP
NATIONAL WEATHER SERVICE LOUISVILLE KY
1000 AM EST TUE DEC 06 2016

NOTE "FAIR" INDICATES FEW OR NO CLOUDS BELOW 12,000 FEET
WITH NO SIGNIFICANT WEATHER AND/OR OBSTRUCTIONS TO VISIBILITY.

KYZ001>023-026-027-061>063-070>075-061600-
WESTERN AND SOUTH CENTRAL KENTUCKY

CITY           SKY/WX    TMP DP  RH WIND       PRES   REMARKS
PADUCAH        CLOUDY    42  39  89 NW12      29.75R
HENDERSON      CLOUDY    43  37  81 CALM      29.71R
OWENSBORO      LGT RAIN  43  42  97 N6        29.71R
HOPKINSVILLE   RAIN      43  43 100 NW3       29.70R
BOWLING GREEN  HVY RAIN  47  46  97 CALM      29.68R FOG
GLASGOW        NOT AVBL
$$

KYZ024-025-028>034-038-045-046-053-061600-
NORTH CENTRAL KENTUCKY

CITY           SKY/WX    TMP DP  RH WIND       PRES   REMARKS
LOUISVILLE/SDF LGT RAIN  43  41  93 N9        29.66R FOG
LOUISVILLE/LOU LGT RAIN  43  40  89 NW6       29.67S FOG
FORT KNOX      LGT RAIN  42  42  99 N7        29.64S
$$

KYZ035>037-039>044-047>052-055>060-089>105-061600-
NORTHEAST KENTUCKY

CITY           SKY/WX    TMP DP  RH WIND       PRES   REMARKS
LEXINGTON      CLOUDY    45  43  93 CALM      29.64R FOG
COVINGTON      RAIN      41  40  96 N5        29.66R VSB 1
FRANKFORT      LGT RAIN  43  40  89 NW7       29.66R FOG
$$

KYZ054-064>069-076>088-106>120-061600-
SOUTHEAST KENTUCKY

CITY           SKY/WX    TMP DP  RH WIND       PRES   REMARKS
JACKSON        RAIN      48  46  93 SE6       29.68R FOG
LONDON         LGT RAIN  52  48  86 SE10G17   29.62F
SOMERSET       NOT AVBL
MIDDLESBORO    RAIN      49  48  96 CALM      29.69F
MONTICELLO     CLOUDY    56  54  93 VRB7      29.63R
$$




USA.gov is the U.S. government's official web portal to all federal, state and local government web resources and services.